Regional Weather Roundup
Issued by NWS

Home | Current Version | Previous Version | Graphics & Text | Print | Product List | Glossary Off
Versions: 1 2 3 4 5 6 7 8 9 10 11 12 13 14 15 16 17 18 19 20 21 22 23 24 25 26 27 28 29 30 31 32 33 34 35 36 37 38 39 40 41 42 43 44 45 46 47 48 49 50

000
ASUS43 KLOT 270309
RWRIL

ILLINOIS REGIONAL WEATHER ROUNDUP
NATIONAL WEATHER SERVICE CHICAGO/ROMEOVILLE IL
1000 PM CDT MON JUN 26 2017

NOTE: "FAIR" INDICATES FEW OR NO CLOUDS BELOW 12,000 FEET WITH NO
SIGNIFICANT WEATHER AND/OR OBSTRUCTIONS TO VISIBILITY.

* THESE STATIONS ARE NOT UNDER NWS QUALITY CONTROL. THEY ALSO MAY NOT
  REPORT WEATHER SUCH AS PRECIPITATION OR FOG.

ILZ001-002-007-009-015-016-024-270400-
NORTHWEST ILLINOIS

CITY           SKY/WX    TMP DP  RH WIND       PRES   REMARKS
MOLINE         CLEAR     62  45  53 CALM      30.11R
STERLING*      CLEAR     60  46  59 N3        30.11R
SAVANNA*       CLEAR     55  47  72 N5        30.11R
$$

ILZ003-004-008-010-011-017-018-270400-
NORTH CENTRAL ILLINOIS

CITY           SKY/WX    TMP DP  RH WIND       PRES   REMARKS
ROCKFORD       CLEAR     58  46  64 W5        30.11R
FREEPORT*      CLEAR     54  45  71 CALM      30.13R
ROCHELLE*      CLEAR     56  47  71 CALM      30.11R
DE KALB*       PTCLDY    58  44  59 NW3       30.11R
PERU*          CLEAR     59  45  59 N6        30.11R
$$

ILZ005-006-012>014-019>023-270400-
NORTHEAST ILLINOIS

CITY           SKY/WX    TMP DP  RH WIND       PRES   REMARKS
CHICAGO-OHARE  PTCLDY    61  44  53 NW9       30.08R
CHICAGO-MIDWAY PTCLDY    62  44  51 NW9       30.08R
AURORA         CLEAR     56  45  66 NW5       30.10R
LANSING*       CLEAR     62  42  47 NW9       30.08R
JOLIET*        CLEAR     63  45  52 N3        30.09R
WAUKEGAN       CLOUDY    58  47  66 CALM      30.07R
DUPAGE AIRPORT CLEAR     58  46  64 NW6       30.08R
WHEELING       CLEAR     59  47  64 NW5       30.09R
MORRIS*        CLEAR     60  44  55 CALM      30.08R
ROMEOVILLE*    CLEAR     60  42  50 N9        30.09R
NORTHERLY ISL    N/A     63  42  46 NW7         N/A
$$

LMZ740>746-270400-
SOUTHERN LAKE MICHIGAN

STATION/POSITION SKY/WX   TEMP    WIND        PRES    VSBY  WAVE
                          AIR SEA DIR/SP/G                  HT/PER
                          (F)     (DEG/KT/KT) (MB)    (MI)  (FT/S)
SOUTHERN BUOY              59 61  350/  8/ 10 1016.9          2/ 5
WILMETTE HARBOR            62 63  300/ 12/ 14   N/A           2/ 4
HARRISON CRIB              63     320/ 13/ 14   N/A
BURNHAM HARBOR             63                   N/A
CALUMET HARBOR             63     310/  8/ 13 1017.9R
BURNS HARBOR               63     340/ 15/ 20 1018.3R
MICHIGAN CITY              62     320/ 16/ 18   N/A
MICHIGAN CITY 6N           63 65  330/ 14/ 17   N/A           5/ 5
ST. JOSEPH                 62 68  350/ 12/ 17 1018.0          4/ 5
$$

ILZ025>027-034>036-040-047-049-050-058-095>099-270400-
WEST-CENTRAL ILLINOIS

CITY           SKY/WX    TMP DP  RH WIND       PRES   REMARKS
QUINCY         LGT RAIN  63  55  75 NE8       30.11R
GALESBURG*     CLEAR     56  54  91 CALM      30.13R
MACOMB*        CLEAR     56  54  94 CALM      30.13R
JACKSONVILLE*  MOCLDY    59  53  79 CALM      30.11R
PITTSFIELD*    CLEAR     61  56  82 CALM      30.12R
$$

ILZ028>032-037-038-041>044-048-051>054-059>061-270400-
CENTRAL ILLINOIS

CITY           SKY/WX    TMP DP  RH WIND       PRES   REMARKS
PONTIAC        MOCLDY    60  56  87 W5        30.10R
BLOOMINGTON    CLEAR     56  53  90 W5        30.11R
DECATUR        CLOUDY    60  53  77 CALM      30.11R
PEORIA         CLEAR     57  55  93 CALM      30.11R
LACON*         CLEAR     56  54  93 CALM      30.10R
LINCOLN*       CLOUDY    60  55  84 CALM      30.10S
SPRINGFIELD    CLEAR     59  55  87 CALM      30.11R
TAYLORVILLE    CLEAR     58  52  79 CALM      30.12R
$$

ILZ033-039-045-046-055>057-062-063-270400-
EAST-CENTRAL ILLINOIS

CITY           SKY/WX    TMP DP  RH WIND       PRES   REMARKS
CHAMPAIGN      CLEAR     55  48  77 SW6       30.10R
RANTOUL*       CLEAR     58  53  84 W3        30.09R
MATTOON        CLOUDY    59  53  80 CALM      30.10R
PARIS*         PTCLDY    54  52  92 SW3       30.10R
$$

ILZ079-100>102-270400-
SOUTHWEST ILLINOIS

CITY           SKY/WX    TMP DP  RH WIND       PRES   REMARKS
ALTON          PTCLDY    63  55  77 W6        30.10S
BELLEVILLE     CLEAR     61  55  78 CALM      30.12R
CAHOKIA*       CLEAR     65  52  62 SW3       30.11R
SPARTA*        PTCLDY    65  53  66 CALM      30.12R
$$

ILZ064>066-069>071-074>076-080>082-084>086-088>090-092>094-270400-
SOUTH-CENTRAL ILLINOIS

CITY           SKY/WX    TMP DP  RH WIND       PRES   REMARKS
CARBONDALE     PTCLDY    65  58  78 N3        30.11R
CAIRO*         CLOUDY    69  60  72 W9        30.09R
EFFINGHAM*     MOCLDY    59  55  88 CALM      30.12R
MARION         CLEAR     66  55  68 N3        30.10S
MT. VERNON     CLEAR     56  55  97 CALM      30.11R
CENTRALIA*     CLEAR     59  56  89 CALM      30.10R
SALEM*         CLEAR     60  55  84 CALM      30.11R
METROPOLIS*    CLOUDY    68  60  73 CALM      30.09R
$$

ILZ067-068-072-073-078-083-087-091-270400-
SOUTHEAST ILLINOIS

CITY           SKY/WX    TMP DP  RH WIND       PRES   REMARKS
LAWRENCEVILLE  PTCLDY    61  58  90 CALM      30.10R
FLORA*         CLEAR     59  53  80 CALM      30.11R
FAIRFIELD*     PTCLDY    60  55  84 CALM      30.10R
HARRISBURG*    CLEAR     64  55  73 CALM      30.10R
ROBINSON*      PTCLDY    55  52  89 CALM      30.11R
CARMI*         PTCLDY    60  57  88 CALM      30.10R
$$

ABBREVIATIONS USED IN REMARKS
   TC - TEMPERATURE IN CELSIUS
  WCI - WIND CHILL INDEX
   HX - HEAT INDEX
  VSB - VISIBILITY
$$





USA.gov is the U.S. government's official web portal to all federal, state and local government web resources and services.